Temp
13 13 13 13 13 13 13 15 16 17 19 19 18 18 19 19 20 21 21 21 21 21 19 18 18 18 18 18 18 18 17 17 17 17 17 18 18 18 17 17 17 17 17 17 17 16 16 16 16 16 16 17 17 17 17 18 18 18 17 17 18 18 17 18 19 18 18 19 18 18 18 18 18 18 18 18 18 18 19 20 20 20 20 20 21 20 20
14 14 13 13 13 13 14 15 16 17 17 17 17 19 19 18 17 19 21 21 22 21 18 18 18 17 18 18 17 18 17 17 17 16 16 17 18 17 17 17 17 17 17 17 16 16 16 16 16 16 16 17 18 17 17 18 18 18 18 17 18 18 15 17 20 19 19 20 20 19 18 17 17 17 18 18 18 18 19 19 20 20 19 19 20 20 20
14 14 13 13 13 13 14 15 16 17 17 17 17 17 17 18 18 18 19 20 20 19 17 18 17 17 17 17 17 17 17 17 17 16 16 16 17 17 17 17 17 16 16 16 15 16 16 16 16 16 16 17 18 17 17 17 18 18 18 17 18 17 15 16 19 19 19 19 19 18 17 16 16 17 17 18 18 18 19 20 20 20 19 18 20 20 20
13 14 13 13 13 13 14 15 16 17 17 17 17 15 16 19 19 18 19 18 17 17 16 17 17 17 17 17 16 16 17 17 17 17 17 16 16 17 17 17 17 16 16 16 15 15 16 16 16 16 16 17 17 17 17 17 18 19 18 17 17 16 14 15 16 17 17 16 16 16 16 16 16 16 17 18 18 18 19 19 19 19 19 19 19 19 18
13 14 14 13 13 14 14 15 16 17 17 17 17 15 16 18 17 16 17 18 18 17 16 16 17 17 16 16 16 16 16 17 17 18 17 16 16 17 16 16 17 17 16 16 15 15 15 16 16 15 16 16 16 16 17 17 17 18 18 17 17 16 15 15 15 15 15 15 15 16 16 15 16 16 17 18 18 18 19 19 19 19 19 19 18 17 17
13 14 14 13 13 14 15 15 16 17 17 18 18 16 15 16 16 15 15 17 17 16 16 16 16 16 16 16 16 16 16 16 16 17 17 17 16 17 16 16 16 16 16 16 15 15 15 15 15 15 15 16 16 17 17 17 17 18 17 16 16 16 15 15 15 15 15 15 15 15 15 15 15 16 16 17 17 18 18 19 19 19 20 19 18 16 16
14 14 14 13 13 14 15 16 17 17 17 19 18 16 15 15 16 15 15 16 16 16 16 16 16 16 16 16 15 15 16 16 15 16 17 17 16 16 16 15 15 16 16 16 15 15 15 15 15 15 15 15 15 16 16 17 17 17 17 16 15 15 15 15 15 15 14 15 15 15 15 15 16 16 16 16 17 17 17 18 18 19 19 19 17 16 16
14 14 14 13 13 13 14 16 17 17 19 19 16 14 14 15 15 15 16 16 16 16 16 16 16 16 15 15 15 15 15 16 15 15 16 17 16 16 16 15 15 16 16 16 16 16 16 16 15 15 15 15 15 16 16 16 16 17 16 16 15 15 15 15 15 14 14 14 14 15 15 15 15 16 16 16 17 17 17 18 18 19 19 17 17 17 16
14 14 15 13 13 13 13 15 16 17 19 18 15 12 12 12 12 13 16 16 15 15 16 15 16 16 15 15 15 15 15 15 15 16 16 16 16 16 16 15 15 16 16 16 16 16 16 17 17 17 16 16 16 16 15 15 16 16 16 15 16 16 15 14 14 15 14 14 14 14 15 15 15 15 15 15 16 17 17 17 16 17 17 17 18 17 16
14 14 14 14 13 13 13 14 14 16 17 16 13 12 12 12 12 11 14 16 15 14 15 15 15 15 15 15 15 15 15 15 15 16 16 15 15 15 16 16 16 16 16 16 16 16 17 17 17 16 17 16 16 15 15 15 15 16 16 15 15 15 15 14 14 15 14 13 13 14 15 15 16 15 15 14 15 16 16 16 15 14 15 16 18 17 15
14 14 14 14 13 13 13 13 13 14 15 14 13 11 10 12 12 13 15 17 15 14 15 15 15 16 15 15 16 15 15 15 15 16 16 15 15 15 15 16 16 16 16 16 16 16 16 16 15 15 15 15 14 14 14 14 14 14 16 16 14 15 15 14 13 14 14 13 13 14 15 16 15 15 14 14 14 15 15 15 14 14 14 15 16 15 15
14 14 14 15 14 13 13 13 13 13 13 13 13 11 11 11 12 14 17 17 14 14 15 15 15 15 15 16 16 15 15 15 15 15 15 16 15 15 16 16 16 16 16 16 16 16 16 15 15 14 14 14 14 14 14 15 14 13 14 16 15 15 15 14 13 13 14 13 14 15 16 15 15 14 13 13 14 14 14 14 13 13 14 15 14 14 14
15 14 14 15 14 13 13 13 13 13 13 13 13 12 12 12 12 14 16 16 15 15 15 15 14 15 16 16 16 15 15 15 15 15 16 16 16 16 16 16 16 16 16 16 16 16 16 14 14 15 14 14 15 14 14 14 14 14 14 15 15 15 14 14 13 13 13 13 14 16 15 14 14 14 13 13 14 14 15 15 13 12 13 13 13 13 13
15 14 14 15 14 13 13 13 13 13 13 13 13 13 13 13 13 14 15 16 15 13 13 15 15 15 16 16 15 15 15 15 15 15 15 15 15 16 16 16 16 15 14 16 16 15 15 14 14 14 14 15 15 14 13 13 13 13 13 14 15 15 14 14 13 13 13 12 13 14 14 14 14 14 13 13 13 13 14 15 14 12 12 12 12 12 12
15 14 14 15 15 14 13 13 13 13 13 13 13 13 13 13 14 13 12 14 16 14 13 15 16 15 16 15 15 16 16 15 15 15 15 15 15 16 16 16 16 14 14 16 16 14 14 14 14 14 14 14 14 13 13 13 13 12 12 12 14 14 14 14 14 13 13 12 12 13 13 14 14 13 13 13 13 12 12 14 13 11 10 11 12 12 12
15 14 14 15 15 14 13 13 13 13 13 13 13 13 13 13 13 13 12 14 16 16 15 15 15 15 16 15 14 15 16 15 15 15 15 15 15 16 15 15 14 14 15 16 14 14 14 14 13 13 13 13 12 13 13 13 13 12 11 12 13 12 12 13 14 13 12 12 12 12 13 14 14 13 13 13 12 12 12 13 13 11 10 11 11 11 11
14 14 14 15 15 15 14 13 13 13 13 13 13 13 13 13 13 13 13 14 16 16 15 14 14 15 16 15 15 15 15 15 14 15 15 15 14 15 15 15 15 14 15 15 14 14 14 12 11 12 12 11 11 13 12 12 13 13 12 13 13 12 12 13 13 12 12 12 12 12 12 14 14 13 13 12 12 12 12 14 13 10 9 11 12 11 11
14 13 14 15 15 15 14 14 13 13 13 13 13 13 13 13 13 14 13 13 16 17 15 13 14 16 16 16 16 15 14 14 15 15 15 14 14 15 15 15 15 15 14 14 14 13 13 12 12 13 13 11 11 12 12 12 13 12 11 11 11 11 11 11 11 11 11 11 11 11 12 13 13 13 13 13 12 12 13 13 12 10 10 11 11 11 11
14 13 14 15 15 15 15 14 14 13 13 13 13 13 12 12 13 13 13 13 14 16 15 12 13 15 15 14 15 14 13 15 15 15 15 15 14 14 14 14 14 14 14 14 14 13 13 12 11 12 12 11 11 11 12 12 12 11 10 11 11 10 10 9 9 10 10 10 10 10 12 13 14 13 13 13 13 13 12 12 10 10 11 11 11 11 11
13 13 14 16 15 15 15 14 14 14 13 13 13 13 12 12 12 13 13 13 13 15 15 13 13 14 14 14 16 15 14 15 15 15 15 15 14 14 14 14 14 14 14 14 13 12 12 13 11 11 12 12 11 11 11 11 11 11 11 12 12 12 11 10 8 9 10 9 9 11 13 14 13 13 13 13 13 13 12 10 10 10 11 11 11 11 10
12 12 14 16 16 15 15 15 14 14 14 13 13 13 12 12 12 12 12 12 12 14 15 14 13 14 14 14 15 16 16 16 15 15 16 15 14 14 15 15 15 15 14 14 13 12 12 13 12 11 12 12 11 11 12 12 12 11 10 12 12 12 12 11 10 10 10 10 10 13 14 13 13 14 14 14 14 13 12 11 11 10 10 10 10 10 10
12 12 14 16 16 15 15 15 14 14 14 14 13 13 13 12 12 12 12 12 12 13 14 14 13 13 14 15 15 15 15 15 15 16 16 15 13 14 14 15 15 15 14 14 14 13 12 12 12 12 12 11 11 11 11 12 13 11 10 11 12 12 12 13 12 11 11 12 13 14 13 11 11 13 14 14 13 12 11 11 11 10 10 10 10 10 9
12 12 14 15 15 15 15 15 14 14 14 14 14 13 12 12 12 12 12 11 11 12 13 12 12 14 14 14 15 15 15 15 14 15 15 15 14 13 13 15 15 14 13 14 15 14 14 13 13 13 12 12 12 12 10 11 12 12 11 12 13 12 11 11 12 12 12 12 13 12 11 11 11 11 12 13 12 11 11 11 10 10 10 10 9 9 9
12 13 14 15 15 15 15 15 14 14 14 14 14 13 12 12 12 12 12 11 10 13 13 12 12 14 15 14 15 15 15 15 15 15 15 15 14 14 14 14 14 14 15 14 13 13 13 12 11 12 13 12 12 12 12 11 11 11 12 12 12 11 10 11 12 12 12 13 13 11 11 11 11 11 11 11 11 11 10 10 11 10 10 9 9 9 8
12 13 15 15 15 14 14 14 14 14 14 14 13 12 12 12 11 11 12 11 11 12 13 13 14 15 14 14 15 15 15 15 15 15 15 14 14 15 15 14 14 15 15 13 12 13 14 13 11 12 13 13 13 12 12 12 12 11 12 12 12 12 11 11 12 11 12 13 13 11 11 11 11 11 11 11 11 11 10 10 10 10 9 8 8 8 8
12 13 15 15 15 15 14 13 12 12 12 13 12 11 11 11 11 11 11 11 10 10 11 13 14 14 14 14 15 15 15 15 15 15 15 15 14 15 15 15 14 14 12 11 12 14 14 13 12 12 13 13 13 13 12 12 12 11 11 12 12 11 11 11 11 11 11 12 12 11 11 11 11 11 11 11 11 11 11 10 10 9 9 8 8 8 8
11 13 14 15 15 15 14 13 12 11 11 12 12 11 11 12 12 11 10 10 11 12 12 12 13 13 12 13 14 15 15 15 15 15 14 14 15 14 14 14 14 14 13 12 13 13 13 13 13 12 12 12 12 12 12 12 11 11 12 11 10 11 11 11 10 11 11 12 13 13 13 14 14 12 12 11 10 10 11 10 10 10 9 9 9 8 8
12 13 14 15 15 15 14 13 12 12 12 12 12 12 12 12 12 11 11 10 11 12 12 12 11 12 12 13 14 15 15 15 15 15 14 14 14 14 13 13 13 14 14 14 13 12 13 13 12 12 12 12 12 11 11 11 11 12 12 11 10 12 13 11 11 13 13 13 13 13 13 14 14 13 13 12 10 9 10 10 10 10 10 9 9 9 8
12 13 14 15 15 15 14 13 12 11 11 12 12 11 11 11 11 11 11 10 10 10 10 11 11 12 13 14 14 14 15 15 15 15 15 14 14 14 13 13 13 14 14 13 13 13 13 13 12 12 12 12 13 12 11 11 11 12 12 12 12 12 13 13 13 13 13 14 13 12 13 14 14 13 13 12 9 9 10 11 10 10 8 7 8 8 8
12 13 14 15 14 14 14 13 12 10 10 11 11 11 12 12 11 11 11 11 10 10 11 11 11 12 12 13 13 14 15 15 14 14 14 13 13 13 13 13 13 13 13 13 13 13 13 12 13 12 11 12 13 12 11 11 11 12 13 13 12 12 12 12 13 13 13 14 13 11 12 13 12 11 11 9 7 8 10 10 10 9 8 8 8 7 7
12 13 14 14 14 14 13 12 10 9 9 9 10 13 15 14 11 10 11 11 10 10 11 11 11 12 12 13 13 14 15 15 14 13 13 12 12 12 13 13 13 13 13 12 12 12 12 12 13 12 11 12 12 12 11 10 11 12 13 13 13 12 12 12 12 12 13 12 11 10 11 10 9 9 11 10 8 8 9 9 9 9 9 9 9 8 8
13 13 14 14 14 13 12 10 9 8 8 8 9 12 13 12 10 10 10 10 10 10 11 11 12 12 12 13 14 14 15 15 14 13 13 13 13 12 13 12 12 12 12 12 11 11 12 12 13 12 11 12 12 11 11 10 10 12 13 13 13 12 12 12 12 11 11 11 10 10 11 10 9 11 12 11 8 7 7 8 9 9 9 8 8 8 8
13 13 13 13 13 12 10 9 8 8 8 8 9 11 11 10 10 9 9 9 10 10 11 11 12 12 12 13 14 14 15 14 14 14 14 13 12 12 12 11 11 12 13 12 11 12 12 12 12 12 11 12 12 11 11 11 11 12 13 13 13 12 12 12 12 11 11 10 10 12 12 12 10 10 10 9 8 8 8 8 8 8 8 7 7 8 8
13 12 13 12 11 10 9 8 8 8 8 8 10 11 11 11 10 10 9 9 10 11 11 11 12 12 12 13 14 14 15 15 14 14 14 12 11 12 13 12 11 12 12 12 12 12 12 12 12 11 11 11 11 11 11 11 12 12 13 13 13 12 11 11 11 11 10 10 10 11 11 10 9 8 9 9 9 8 8 7 7 8 8 8 8 8 7
13 12 12 11 9 8 8 8 8 8 8 8 10 12 12 11 11 11 10 10 11 12 12 12 12 12 12 12 13 14 14 14 13 13 13 12 11 12 12 12 11 12 12 12 11 11 12 12 12 11 11 11 11 11 11 12 12 12 13 12 12 12 11 11 11 11 10 9 9 10 9 9 9 10 11 11 10 9 8 8 8 8 8 9 8 8 7
12 11 11 10 8 8 8 8 8 9 9 10 11 12 12 12 12 11 10 10 11 11 12 12 12 12 12 12 12 13 14 14 13 12 12 12 11 11 12 12 11 12 11 11 11 11 11 11 11 11 11 11 12 12 12 12 12 12 12 12 12 12 11 12 12 12 11 9 9 9 9 9 10 11 10 10 10 9 10 10 9 8 8 8 8 8 7
11 10 9 8 8 8 9 9 9 10 11 11 11 11 12 12 11 10 10 10 10 11 11 11 12 12 12 12 12 13 13 13 13 13 13 12 12 11 11 11 12 12 11 11 11 11 11 11 11 11 11 12 12 13 13 12 12 12 12 12 12 12 12 11 11 11 10 9 9 9 9 9 10 10 10 11 11 10 10 10 10 9 9 9 8 8 7
9 8 8 8 9 10 11 11 10 11 11 11 11 11 11 11 11 10 10 10 11 11 11 11 11 12 12 12 12 13 13 13 13 13 12 12 11 11 11 11 12 12 11 11 11 11 11 11 11 11 11 12 12 13 13 12 12 11 11 11 12 12 12 11 11 10 10 10 9 9 10 10 10 10 10 11 11 10 10 9 8 7 7 7 7 7 7
8 8 8 8 10 12 12 11 11 12 12 11 11 11 11 11 12 11 11 11 11 11 11 11 11 12 12 12 12 12 13 12 12 12 12 12 12 12 11 11 11 11 11 11 11 11 11 11 10 10 11 12 12 12 12 11 10 10 10 10 11 11 11 11 11 11 11 12 12 11 11 11 11 11 11 11 11 10 8 6 6 7 7 7 7 7 7
8 8 9 9 10 11 11 11 11 11 11 11 11 11 11 11 12 12 11 11 11 11 11 11 11 11 11 12 12 12 12 12 12 12 12 12 12 12 11 11 11 11 11 11 11 11 11 11 11 10 11 12 11 11 11 10 10 10 10 10 10 9 9 9 10 10 10 11 10 9 9 9 10 11 11 11 11 11 9 7 7 8 7 7 7 7 7
8 8 9 10 10 10 10 11 11 11 11 11 12 12 12 12 12 12 11 12 12 12 11 11 11 11 11 11 11 11 12 12 12 11 12 11 11 11 11 12 11 11 11 11 11 11 11 11 10 10 11 11 10 10 10 10 10 10 10 9 9 8 8 8 9 9 10 10 10 8 8 8 9 9 9 9 9 9 9 8 8 8 8 7 7 7 7
8 9 9 9 9 10 10 11 11 11 12 12 12 12 12 12 12 12 12 13 13 13 12 12 12 13 13 12 11 11 12 12 11 11 11 11 11 11 11 11 11 11 11 11 11 11 11 10 9 10 11 11 10 10 10 10 10 10 10 9 9 8 8 9 9 9 9 10 9 8 7 9 10 10 10 10 9 8 8 8 8 8 8 8 7 7 7
8 9 9 9 9 10 10 11 11 11 12 12 13 13 12 12 12 13 13 13 13 13 13 13 13 13 13 13 12 12 12 12 11 11 11 11 11 11 11 11 11 11 11 11 11 11 11 10 10 11 11 10 10 10 9 9 10 10 10 9 9 9 9 9 9 10 9 9 10 10 9 10 11 11 11 10 10 9 9 9 9 8 8 8 7 7 7
8 8 9 10 10 11 12 12 12 12 12 13 13 13 14 14 14 14 14 14 14 14 14 14 13 13 13 13 13 12 12 11 11 11 11 11 11 11 11 11 11 11 11 11 11 10 10 9 10 11 10 9 9 9 9 9 9 10 10 10 10 10 9 9 9 9 9 9 10 10 10 11 11 11 10 10 10 9 9 9 9 8 8 8 7 7 7
9 10 11 12 12 12 13 13 12 12 13 13 12 13 14 15 14 14 14 14 14 14 14 13 13 13 13 13 13 12 12 12 11 11 11 11 11 11 11 11 11 11 10 10 10 10 10 10 10 10 9 9 9 9 9 9 9 9 10 10 10 10 10 9 9 9 9 8 8 9 10 10 10 10 10 10 10 9 9 9 9 8 8 7 7 7 6
10 10 12 13 14 12 13 13 13 13 14 14 14 14 15 15 14 14 14 13 13 14 14 13 13 13 13 13 12 12 12 12 12 11 11 11 11 11 11 11 11 11 10 10 11 11 11 10 10 9 9 9 9 9 9 9 9 9 9 10 10 10 10 9 9 9 8 8 8 9 9 9 10 10 10 10 10 9 9 9 9 8 8 7 6 6 6
10 10 11 13 14 12 12 13 14 14 14 15 14 15 15 14 14 14 13 13 12 13 13 13 13 12 12 13 13 12 12 12 12 11 11 11 12 12 11 11 11 10 10 11 11 11 10 9 9 9 9 8 8 8 8 8 9 9 9 9 9 10 9 9 9 8 8 7 8 8 8 9 10 10 10 10 10 9 9 9 8 8 7 7 6 6 6
11 11 11 14 14 13 13 14 14 14 14 14 13 13 13 13 13 14 13 13 13 13 13 13 13 13 13 13 13 12 12 12 12 12 11 11 11 11 11 11 11 10 10 11 10 10 9 9 9 9 8 8 8 8 8 8 8 8 9 9 9 9 9 9 9 8 7 7 7 7 8 9 10 10 9 9 10 9 9 9 8 7 7 6 6 6 6
10 10 11 12 13 13 13 13 14 14 14 13 12 12 13 13 13 14 13 13 13 13 13 13 13 13 13 13 12 12 12 12 12 12 11 11 11 11 10 11 11 10 10 10 9 9 9 9 8 8 8 8 8 8 8 8 8 8 8 8 9 9 9 9 8 8 8 7 7 8 9 10 10 10 9 10 10 9 9 8 8 7 7 6 6 6 5
9 10 11 12 13 13 14 13 14 15 15 14 13 14 14 13 13 14 13 13 13 13 13 13 13 13 13 12 13 13 13 12 12 12 11 11 11 10 9 10 10 10 9 9 9 8 8 8 7 7 7 7 7 7 7 7 7 8 8 8 9 9 9 9 8 8 8 7 8 9 10 10 10 10 10 10 9 9 8 8 7 7 6 6 6 5 5
9 10 11 12 13 14 15 14 14 14 14 14 14 14 13 13 14 14 13 13 14 15 14 14 13 13 13 13 13 13 13 12 11 10 10 10 9 9 9 9 9 9 9 8 8 7 7 7 7 7 6 6 6 7 7 7 7 7 7 8 8 9 9 9 8 8 8 8 8 9 10 10 10 10 10 10 9 8 8 7 7 7 6 6 6 5 5
11 11 12 12 12 12 13 13 13 13 13 13 13 13 13 14 14 13 12 13 14 15 15 13 13 13 13 13 13 13 12 11 10 10 9 9 9 8 9 9 8 8 8 7 6 6 6 6 6 6 6 6 6 6 6 7 7 7 7 8 8 9 9 8 8 8 8 8 8 9 10 10 10 10 10 9 9 8 6 6 6 6 6 6 6 6 5
Height
812 810 807 804 800 797 794 790 787 784 780 778 776 776 778 782 785 779 773 773 768 772 790 796 792 795 796 795 795 794 796 797 795 792 791 790 789 792 796 797 800 802 803 803 805 809 815 818 817 817 818 816 814 812 808 804 803 804 809 810 803 806 816 815 812 815 813 807 806 807 805 806 809 811 812 811 812 813 811 808 809 813 819 815 812 828 830
813 810 807 805 801 798 795 791 788 786 783 781 779 780 783 786 786 781 777 773 769 779 797 800 798 800 797 797 798 797 798 800 799 798 798 797 795 798 802 801 801 804 804 804 808 810 814 819 819 817 819 816 811 810 808 805 805 805 808 809 804 811 825 822 815 822 822 813 810 811 811 815 820 819 816 814 813 810 808 809 810 814 825 823 818 829 829
814 811 808 806 802 799 796 792 789 787 785 784 781 782 785 787 788 786 781 775 775 787 797 798 801 803 801 803 804 802 801 801 801 802 802 801 800 802 804 803 803 805 805 807 811 810 811 817 819 818 819 816 811 810 809 807 806 804 804 805 804 815 830 826 818 823 827 825 824 825 827 827 826 824 820 815 814 812 810 811 812 816 824 825 822 826 825
814 812 809 806 803 800 796 793 790 787 786 785 783 784 786 789 793 794 789 784 786 794 798 797 800 803 803 806 808 808 807 803 801 801 802 803 803 804 806 805 805 808 808 811 816 814 813 815 818 820 820 817 815 813 811 809 807 804 804 805 807 819 832 831 825 826 829 833 834 832 833 833 830 829 824 818 817 816 812 814 820 822 823 825 826 828 829
815 813 810 807 804 801 797 793 790 788 787 786 785 786 788 793 800 803 799 796 796 798 800 801 801 802 805 809 811 812 811 809 804 802 803 806 805 806 809 808 808 811 812 815 819 820 818 817 819 823 822 818 817 815 813 812 809 806 807 807 811 822 832 831 831 832 833 835 835 832 831 833 833 831 827 821 818 817 815 816 820 822 823 828 830 830 833
816 813 811 808 805 802 798 794 791 789 788 786 785 790 794 797 803 806 803 804 806 806 805 805 805 804 806 810 812 813 813 813 812 807 805 806 806 808 812 814 813 813 813 816 821 823 823 823 824 824 823 821 819 817 815 814 812 810 811 812 814 824 833 832 831 835 835 835 835 833 832 833 832 830 827 824 821 820 820 819 819 819 821 825 829 832 834
817 814 812 810 807 803 800 796 792 790 790 788 787 793 798 800 803 805 804 806 810 810 808 808 807 807 808 811 814 816 815 815 815 813 809 809 810 812 816 818 817 815 813 815 820 824 825 827 827 824 824 825 823 822 820 817 815 813 814 817 818 825 832 832 832 836 837 836 836 834 833 832 830 828 828 827 824 824 823 820 819 818 818 822 826 831 834
817 815 813 811 809 806 802 799 795 792 792 790 791 797 802 803 805 806 804 807 810 809 808 809 809 810 812 815 816 817 817 816 816 814 813 814 814 814 817 820 818 817 815 815 820 821 821 823 825 823 824 825 824 825 825 822 819 817 819 820 820 825 832 833 833 838 840 839 837 835 834 834 832 830 829 828 825 824 822 822 821 818 820 825 826 830 834
818 816 815 813 810 808 805 802 798 796 794 792 796 803 805 806 808 807 806 810 812 811 812 812 812 813 815 817 817 817 817 818 817 815 814 816 816 815 818 820 819 818 818 818 820 820 817 818 818 818 820 821 821 822 824 824 821 821 823 823 821 824 832 835 835 837 841 841 839 837 835 834 833 832 832 831 829 826 824 825 827 825 826 827 824 827 834
819 817 816 814 812 810 808 805 802 799 797 796 799 805 807 806 808 808 807 812 816 816 815 816 816 817 817 817 818 818 818 818 817 817 816 816 817 817 817 818 819 820 821 820 819 817 817 816 816 816 817 818 819 821 823 824 823 823 824 827 828 827 831 836 837 837 840 842 841 839 835 834 835 835 835 836 833 829 827 829 831 832 832 829 825 828 833
820 818 817 815 814 812 810 808 806 803 801 800 803 807 808 807 807 808 807 812 818 819 817 817 817 817 817 817 817 818 818 817 817 819 820 818 818 818 818 818 820 822 822 819 816 816 817 817 817 819 819 820 822 824 823 823 825 826 823 825 830 830 830 835 838 837 840 843 841 837 835 835 837 836 835 836 834 832 833 834 834 834 832 830 829 831 831
821 819 818 817 815 814 813 811 809 807 806 805 806 807 808 807 807 807 808 813 819 820 818 818 819 817 816 816 816 818 819 818 818 820 820 819 818 818 817 818 820 821 818 815 814 815 817 819 821 822 823 825 825 825 825 825 828 828 825 825 829 831 832 836 840 839 841 841 837 834 835 837 837 835 834 835 834 833 834 836 838 836 832 831 832 833 832
822 820 819 818 816 815 814 813 812 810 809 809 808 808 808 807 807 808 809 814 820 820 818 819 820 818 816 816 817 819 820 820 820 819 819 819 819 817 817 818 819 818 815 814 815 816 820 826 827 826 826 827 826 827 829 830 830 829 827 825 827 830 832 836 839 840 842 843 839 835 838 839 836 834 834 833 832 833 833 835 839 839 836 835 836 836 834
822 821 819 819 817 817 816 815 814 813 812 811 810 810 809 808 807 809 810 814 819 823 822 820 819 818 817 817 818 819 820 820 820 819 819 820 819 819 817 816 815 814 814 815 817 819 824 829 830 831 832 830 830 832 834 835 834 833 831 828 827 830 832 835 840 842 844 849 848 843 842 841 837 836 837 836 836 837 836 837 840 841 841 839 838 838 837
822 821 820 819 818 818 817 816 815 814 813 813 812 811 811 809 808 809 811 813 817 823 823 819 817 818 818 818 819 819 820 821 821 821 821 820 819 818 816 815 814 813 814 816 819 823 826 828 831 835 835 835 837 838 836 837 837 836 837 835 831 831 832 833 837 842 845 848 851 850 845 841 838 838 838 837 838 840 840 840 841 844 845 842 840 839 838
822 822 821 820 819 818 818 817 816 816 815 814 813 812 812 811 810 810 810 812 816 820 819 817 817 817 817 819 820 819 819 822 823 823 822 822 820 818 816 815 814 814 815 817 822 826 827 831 838 839 837 841 844 841 839 840 839 838 839 837 834 836 837 836 837 843 847 848 851 853 848 839 835 836 836 837 838 839 841 841 842 846 848 843 841 841 840
822 822 821 820 820 819 818 818 817 817 816 815 814 814 813 813 812 811 810 812 815 817 816 816 817 817 818 819 820 820 820 822 823 823 823 823 823 820 817 816 815 815 817 820 825 828 830 837 843 841 841 847 845 839 840 842 838 837 838 837 837 838 839 839 841 844 846 847 851 853 846 837 833 834 835 837 836 838 841 840 839 846 848 842 840 841 841
822 822 821 820 820 819 819 818 818 817 817 816 815 815 815 814 814 812 812 813 815 815 814 815 815 816 816 816 817 819 820 820 821 822 822 823 823 821 818 818 818 817 819 822 827 830 832 838 841 837 839 847 845 839 841 841 838 841 848 849 849 849 849 850 852 853 852 851 854 854 844 834 831 832 833 833 834 838 842 840 840 844 845 841 839 839 839
822 821 821 820 820 820 819 818 818 817 817 817 816 816 816 816 815 814 813 815 816 815 813 813 814 813 813 813 815 817 818 817 818 820 823 823 822 820 820 821 821 821 822 824 829 833 834 837 842 840 838 843 844 843 843 841 840 846 851 849 848 852 856 858 860 859 857 858 862 859 844 830 827 829 830 832 835 838 839 838 839 842 840 839 839 838 838
821 821 821 820 820 820 819 819 818 818 817 817 816 817 817 816 816 815 815 816 818 816 812 812 812 812 811 811 813 814 815 817 818 819 820 821 820 821 824 824 822 823 825 826 830 836 835 835 841 842 837 838 842 843 842 840 840 842 842 838 837 841 846 856 862 860 858 864 868 856 837 826 825 829 831 832 832 832 833 836 839 839 837 838 838 838 838
821 820 820 820 819 819 819 819 818 818 818 817 817 817 817 817 816 816 815 816 817 815 811 810 810 810 810 810 810 810 811 813 815 815 817 819 819 820 823 823 821 821 824 825 829 834 834 833 838 839 837 839 841 841 840 838 837 839 840 838 837 837 836 844 853 851 850 857 854 837 824 823 825 825 826 827 826 827 829 832 835 836 837 837 837 837 837
820 820 819 819 819 819 819 818 818 818 818 818 817 817 817 817 816 816 816 815 815 813 810 809 809 809 808 808 808 809 809 809 810 812 813 816 819 819 819 819 818 818 820 823 826 829 830 832 835 835 836 839 839 840 842 838 833 838 842 837 832 831 830 831 835 837 837 837 831 823 823 827 826 822 821 822 824 826 828 830 832 835 836 835 836 836 835
819 819 819 818 818 818 818 818 818 817 817 817 817 816 817 816 816 816 815 814 814 811 808 808 808 806 806 806 806 806 807 808 809 809 810 813 817 818 818 817 816 817 818 818 819 822 825 827 829 830 831 833 833 836 842 841 835 834 836 831 827 829 831 830 828 830 830 826 822 824 827 826 824 823 823 823 824 826 827 829 831 832 833 833 834 834 833
819 818 818 818 818 818 817 817 817 817 817 817 816 816 816 816 816 816 815 815 814 811 808 807 808 806 805 806 806 805 806 806 807 807 808 810 813 816 815 813 813 815 815 814 814 818 821 825 829 830 828 827 828 829 832 835 835 832 830 828 827 829 831 830 828 829 828 823 820 822 824 822 823 824 823 824 825 825 826 827 828 829 830 831 831 831 832
818 817 817 817 817 817 817 817 816 816 816 816 816 816 815 815 816 816 815 815 816 815 814 811 808 805 805 805 805 805 805 804 805 805 806 806 808 809 809 808 808 810 811 812 813 816 819 823 828 829 825 823 824 825 826 826 827 828 827 825 824 825 827 828 828 829 827 820 817 821 823 822 823 822 821 822 823 823 824 825 825 826 828 828 829 829 830
817 817 816 816 816 816 816 816 816 816 815 815 815 815 815 815 815 816 816 816 817 819 820 816 808 804 804 804 802 802 803 802 803 803 803 803 804 804 805 806 807 807 809 811 813 815 816 820 823 825 823 820 819 821 823 822 823 826 825 822 822 824 825 826 827 828 827 821 817 820 822 820 819 819 820 819 820 820 822 823 824 825 826 826 826 827 827
816 816 815 815 815 815 815 815 815 815 815 814 814 813 813 814 814 815 816 817 816 817 818 817 810 805 804 803 801 800 801 800 800 800 800 801 801 802 803 805 806 807 809 812 814 815 817 819 820 820 820 820 818 819 819 818 820 822 820 820 823 822 822 825 827 826 823 817 812 813 815 812 811 813 814 815 817 819 820 821 822 823 823 823 824 824 824
816 815 814 814 814 814 814 814 814 814 814 813 813 812 812 812 813 814 815 816 816 816 817 816 812 807 804 802 799 799 799 798 798 798 797 797 798 799 800 801 804 806 807 809 812 814 815 816 816 817 817 816 816 818 819 818 819 817 812 814 817 814 812 817 819 815 811 806 805 808 810 807 807 809 810 812 814 816 817 818 819 820 820 820 821 822 822
814 814 814 813 813 813 813 814 814 813 813 813 812 812 812 812 812 812 813 815 816 816 817 816 813 808 804 800 798 797 797 796 796 795 795 795 795 796 797 798 800 802 803 806 808 810 811 811 811 812 812 810 812 816 818 817 816 811 805 806 808 805 804 806 806 805 803 800 802 806 807 804 805 807 808 810 812 813 815 816 816 816 817 817 818 819 819
813 813 813 812 813 813 813 813 813 813 812 812 812 811 811 811 812 812 812 814 816 816 817 818 815 809 804 800 798 796 795 794 794 793 792 792 792 793 794 796 798 799 802 805 806 807 809 809 808 809 808 806 809 814 816 815 812 804 798 799 801 801 801 800 799 800 799 797 800 804 803 803 805 806 807 809 810 811 812 813 813 814 814 814 815 816 816
813 812 812 812 812 812 812 812 812 812 812 812 812 812 811 811 812 812 812 814 815 816 817 818 815 810 804 800 797 795 794 793 793 793 793 792 793 793 793 795 797 800 802 805 808 809 809 807 806 807 808 807 808 810 812 815 811 801 794 796 797 796 797 797 796 797 796 797 800 803 803 804 807 807 806 807 807 808 810 810 810 811 811 812 813 813 813
812 811 811 811 811 811 811 812 811 811 812 812 812 812 811 811 812 812 812 814 815 816 817 817 815 812 809 802 797 795 794 793 793 793 794 793 794 794 794 796 798 800 802 806 810 810 807 805 804 805 806 806 807 807 808 811 807 797 792 793 793 791 793 794 793 794 795 797 800 802 802 803 805 803 802 803 805 806 807 807 807 809 809 810 811 810 810
811 811 810 810 810 810 811 811 811 811 811 811 810 810 810 811 812 812 813 815 815 815 816 816 816 816 813 804 798 796 794 794 795 795 794 794 795 795 796 798 799 799 800 804 807 806 803 802 803 804 804 803 805 806 804 801 797 791 788 790 789 789 790 791 791 792 794 795 797 797 796 797 799 800 800 802 803 804 805 805 806 807 808 808 809 808 807
810 810 810 810 810 810 810 811 811 811 811 810 810 809 809 810 811 811 813 815 815 815 816 816 817 817 812 806 802 798 795 795 797 797 796 796 796 797 798 799 800 800 800 801 803 803 801 801 802 804 804 803 804 805 800 794 790 787 786 787 787 788 790 791 790 791 792 792 793 793 793 795 797 798 800 801 802 802 803 804 805 806 806 807 806 805 804
810 810 810 810 810 810 810 811 811 811 811 811 810 809 809 810 810 811 813 814 815 816 816 815 816 816 814 811 807 800 795 796 798 798 798 798 797 797 799 801 802 802 800 800 802 802 801 800 801 803 802 802 803 801 794 788 786 786 785 785 786 788 790 790 788 787 788 789 790 792 793 795 796 797 798 800 800 801 802 802 803 804 804 804 803 803 802
809 809 809 810 810 811 811 811 811 811 811 811 810 810 810 809 810 812 814 814 814 815 815 815 815 815 815 815 810 800 795 797 799 798 798 799 799 799 800 801 803 802 800 801 803 802 800 800 802 803 802 800 797 792 786 784 785 783 782 783 783 783 785 785 783 783 786 788 789 791 793 794 795 795 797 798 799 800 801 801 801 802 803 802 801 800 800
809 809 810 810 811 812 812 812 811 811 811 811 811 811 811 811 812 814 815 815 815 814 815 816 815 812 812 813 809 802 799 800 800 798 799 800 801 801 802 803 802 801 800 801 802 801 800 800 801 802 800 797 791 786 785 785 785 782 780 779 778 779 780 780 780 783 787 789 790 792 793 793 794 795 796 797 798 799 799 799 799 800 800 800 799 798 797
809 810 810 811 812 812 811 811 811 811 811 811 812 812 811 812 814 815 816 816 815 814 814 815 813 809 809 811 808 803 801 802 802 800 801 802 801 801 803 803 801 800 801 802 800 799 800 801 801 800 797 792 788 787 786 786 784 780 778 776 775 776 777 778 779 783 786 788 789 790 791 791 792 794 795 795 796 796 797 797 797 798 798 797 796 796 795
809 810 811 812 812 811 810 810 810 811 811 812 812 812 812 812 813 815 815 815 814 813 814 813 810 807 808 810 806 801 800 803 804 802 802 802 801 801 802 803 801 801 803 802 798 798 800 801 801 801 797 792 790 789 787 785 783 779 776 775 774 774 775 777 778 779 780 780 781 783 785 787 789 791 793 794 794 794 795 795 796 796 796 795 795 794 793
810 810 811 811 811 810 810 810 811 811 811 812 812 813 813 813 813 813 813 814 813 812 811 809 807 805 805 806 805 802 799 800 802 802 801 801 800 800 802 802 801 803 804 801 798 798 799 799 801 801 796 792 792 790 787 785 782 778 775 774 774 774 774 775 776 777 777 778 779 781 783 785 786 788 790 791 792 793 794 794 794 794 794 793 793 792 791
810 810 810 810 810 810 810 810 811 811 812 812 812 812 813 812 811 812 812 812 811 809 806 805 805 804 802 803 805 803 799 797 799 801 801 801 800 801 802 802 801 803 803 799 797 797 798 800 804 802 796 793 793 791 787 784 782 778 777 776 775 774 775 775 776 777 778 779 780 782 783 785 786 787 788 789 790 792 792 793 793 792 792 792 791 790 789
809 809 809 809 809 809 809 810 811 811 811 812 812 813 814 813 811 809 809 807 805 803 801 801 801 800 798 799 800 799 797 797 798 800 802 801 801 801 802 802 803 803 800 797 797 798 799 803 806 802 796 793 793 791 788 786 782 780 779 777 776 777 777 776 776 777 777 778 780 781 783 784 785 786 787 788 790 791 791 791 791 791 790 790 790 789 787
808 809 809 809 809 809 809 810 810 811 812 813 812 812 813 812 808 805 804 803 801 799 798 796 796 795 794 794 796 796 796 796 798 800 801 801 801 802 803 804 803 801 797 795 797 798 798 800 800 796 793 793 793 791 789 787 784 781 779 778 777 778 778 777 777 777 777 778 779 780 782 783 784 785 786 788 789 790 790 790 790 789 789 789 788 787 786
808 809 809 809 809 809 809 809 810 811 812 813 811 808 806 805 803 802 802 800 798 797 796 794 795 796 795 794 795 795 796 796 798 799 800 800 801 803 803 801 799 797 795 795 797 800 801 800 797 794 794 794 792 790 789 787 784 782 780 777 776 777 777 778 778 777 777 778 778 779 780 782 783 784 786 787 788 788 789 789 788 788 788 788 787 786 785
808 809 809 808 809 809 808 809 812 811 809 809 809 806 802 801 801 802 801 798 796 795 794 794 795 797 796 794 794 795 795 797 798 798 799 800 801 802 801 798 795 796 798 799 799 799 798 796 794 793 794 793 791 789 789 787 785 783 781 779 777 776 776 776 777 777 776 776 777 778 779 780 782 784 785 786 787 787 787 787 788 787 787 787 786 785 784
808 808 808 807 808 808 808 809 810 809 804 802 802 800 797 797 798 798 797 796 795 794 793 793 795 795 795 794 794 795 795 796 797 798 800 801 799 797 796 795 795 797 799 798 796 793 792 792 793 794 794 792 790 789 787 785 784 783 781 779 777 775 774 775 775 775 775 775 775 776 778 779 781 783 784 785 786 786 787 787 787 787 786 786 786 785 783
807 809 809 807 807 808 808 806 803 801 798 796 796 795 794 795 796 795 794 794 794 792 792 792 793 794 794 793 793 794 795 796 796 797 799 799 797 795 794 795 797 798 797 793 791 791 793 793 793 792 791 790 789 788 786 784 783 781 780 778 775 773 773 773 773 773 774 774 774 775 777 778 780 782 783 783 784 785 786 786 786 786 786 786 785 784 783
807 808 808 806 805 806 804 800 798 797 796 796 796 795 794 795 795 793 792 791 791 791 791 792 792 792 793 793 793 794 795 796 795 795 797 797 796 796 796 795 795 796 796 793 792 793 794 793 792 791 790 789 788 786 785 783 781 780 778 776 773 771 770 771 771 772 773 774 774 774 776 778 779 781 782 783 783 784 785 785 786 786 786 786 785 784 783
807 808 807 806 805 804 801 798 798 797 795 795 795 795 794 795 794 791 789 789 789 789 790 791 791 791 792 793 793 794 795 794 795 796 796 796 797 799 799 797 794 794 795 796 796 795 793 792 791 790 789 787 786 785 783 781 780 778 776 773 771 769 768 768 769 771 773 775 775 775 776 777 779 780 781 782 782 783 784 785 785 786 786 786 785 784 783
807 807 806 805 803 800 798 798 798 796 794 794 794 793 792 793 792 790 788 788 789 788 788 789 790 791 793 795 794 794 793 794 795 796 795 796 799 803 803 801 799 798 797 796 795 794 792 792 791 789 787 786 785 783 781 779 777 775 773 771 769 767 765 765 767 769 771 774 776 775 776 777 778 779 780 781 782 783 784 785 785 786 786 786 785 784 784
807 806 803 801 798 796 795 796 796 796 795 794 793 791 790 791 792 791 790 789 788 787 788 790 791 792 793 794 794 793 793 794 798 801 801 802 805 806 805 802 800 799 797 796 795 794 793 791 790 788 786 785 782 780 778 777 775 773 771 769 766 764 763 763 764 766 769 773 775 776 776 777 778 778 780 781 781 782 784 785 785 786 786 786 785 785 784
806 803 800 798 797 796 796 796 796 795 793 792 791 791 790 789 790 790 790 789 788 787 788 790 792 793 793 794 794 793 793 796 800 803 804 805 806 807 805 803 801 799 798 797 796 794 791 790 788 786 784 782 780 778 776 774 772 771 769 766 764 762 761 762 763 765 768 772 774 775 776 777 777 778 779 780 781 782 783 785 786 786 786 786 786 785 785
Wind_Speed
24 25 26 28 31 32 32 29 24 26 26 18 13 8 4 3 0 9 18 9 9 12 5 3 5 3 1 2 2 4 3 3 6 6 7 5 4 5 5 3 3 4 3 3 3 3 3 4 3 2 2 3 1 5 7 6 3 3 2 2 2 2 3 3 2 3 3 3 2 4 5 4 4 5 5 4 3 1 2 4 3 2 3 2 3 3 2
24 24 25 28 30 31 32 28 22 23 25 19 12 4 3 1 2 5 17 14 8 7 3 1 4 3 3 3 4 5 3 4 6 6 6 5 3 4 4 3 3 3 3 3 3 2 3 3 3 2 2 2 3 6 8 7 4 3 2 1 1 2 2 3 3 3 4 4 4 4 5 5 3 3 6 6 6 5 2 1 2 3 1 1 3 4 2
24 23 25 27 29 31 31 28 21 20 22 17 9 3 3 3 0 3 13 18 12 5 3 4 4 2 3 5 4 5 3 3 3 4 4 4 3 3 3 3 3 3 3 5 5 5 4 2 1 2 2 2 3 6 9 7 4 5 6 3 2 2 2 2 4 3 2 2 1 2 3 4 2 4 7 7 8 8 3 2 4 3 0 2 5 3 1
23 23 24 26 29 30 30 28 21 18 20 14 7 4 2 2 2 2 7 11 8 3 1 4 4 2 3 4 4 4 3 3 3 4 4 4 4 4 3 3 3 5 6 6 6 8 6 4 2 3 2 2 2 4 7 7 6 9 12 8 3 4 3 2 5 5 4 5 3 3 2 2 2 5 7 7 6 6 3 3 3 1 1 3 3 1 1
22 22 23 25 28 30 30 29 22 18 19 12 4 5 4 3 2 1 2 3 4 4 5 4 3 2 3 2 2 4 3 3 4 5 3 2 3 4 4 4 3 4 4 5 4 5 5 5 4 2 2 2 3 4 5 7 9 9 9 7 3 5 3 3 5 3 1 3 1 4 2 2 2 4 5 6 7 6 5 3 2 3 4 3 1 2 3
21 21 22 24 27 29 30 28 22 18 18 12 4 3 4 3 2 1 1 1 1 2 3 4 5 5 3 3 2 3 4 3 2 3 3 4 4 3 4 6 5 3 3 4 2 3 4 5 3 1 2 2 4 5 4 5 8 7 5 5 4 5 1 1 3 3 3 2 3 4 3 2 2 3 4 6 7 5 5 1 1 4 4 2 1 3 6
20 20 21 22 25 28 29 28 23 18 14 12 10 6 2 2 2 1 2 2 2 1 2 3 5 6 4 3 3 2 4 4 1 2 2 4 5 4 4 4 6 4 3 5 4 2 2 2 2 1 1 2 2 3 3 4 6 6 4 4 3 4 1 0 2 3 4 4 4 4 4 4 4 4 4 5 6 4 2 2 2 2 4 4 5 8 7
19 19 19 20 23 26 28 28 25 18 12 12 13 7 3 2 1 1 3 3 1 1 3 3 4 5 3 3 2 2 3 4 3 2 3 2 4 4 5 2 4 5 5 6 4 3 6 5 2 3 2 2 0 1 1 2 4 5 3 3 3 4 1 0 3 3 2 4 4 4 3 2 2 4 5 5 5 3 2 2 3 2 1 2 5 7 5
18 18 18 18 20 23 26 27 26 21 14 12 10 6 4 2 2 2 4 3 4 3 3 3 4 3 3 2 1 2 3 3 2 2 2 3 1 1 5 4 3 5 6 6 2 3 7 7 6 6 5 2 2 1 1 3 1 4 3 2 3 3 2 1 4 4 2 3 4 6 4 2 2 4 7 8 6 3 2 3 3 2 1 2 3 4 2
16 17 16 16 18 20 23 25 27 24 19 14 8 3 5 3 1 2 5 2 4 3 2 3 3 1 1 1 1 2 3 3 1 2 2 3 3 2 6 5 3 5 5 3 1 4 6 5 5 5 4 3 3 3 2 4 3 1 1 2 2 2 3 1 3 3 2 4 5 4 3 4 1 2 4 5 4 3 3 3 4 2 1 1 2 2 0
14 15 15 15 15 17 19 22 24 25 24 19 10 3 5 3 2 2 4 3 3 2 3 3 3 1 1 2 2 3 4 5 4 4 2 4 4 2 5 6 5 3 1 2 3 3 5 2 2 4 6 6 6 5 6 7 5 1 3 3 1 2 4 2 2 3 2 6 4 2 4 2 2 3 3 3 4 4 3 2 3 3 2 3 3 2 2
12 13 14 14 13 14 16 18 20 22 23 20 13 9 7 3 3 3 4 4 2 3 3 2 0 1 1 2 3 4 4 4 3 2 3 2 3 3 4 5 4 1 3 2 2 2 4 3 5 6 7 7 7 8 10 9 7 4 3 4 2 2 3 1 1 2 1 3 3 4 1 3 4 4 4 3 2 1 3 4 3 4 4 4 4 4 4
11 12 12 12 12 12 13 14 16 18 19 18 16 16 12 5 4 3 4 5 1 1 2 1 2 1 3 4 4 3 2 2 3 2 3 2 3 4 3 3 2 2 1 3 6 5 4 3 4 4 5 5 6 8 9 8 6 6 5 4 4 4 2 1 1 1 0 2 3 2 2 4 4 5 5 2 3 3 4 3 2 3 3 3 2 3 5
9 10 11 11 11 11 10 11 12 14 15 16 16 17 15 10 5 3 3 4 1 2 2 1 3 2 4 4 3 2 3 4 4 3 1 1 2 1 1 1 2 2 2 4 5 5 4 2 3 2 3 5 4 3 4 4 5 6 6 4 3 5 3 1 1 1 2 2 1 1 2 4 4 3 3 1 2 2 2 2 2 2 4 3 2 3 5
7 8 9 9 10 10 9 9 9 11 12 13 14 16 17 14 8 4 4 4 2 1 1 2 2 1 2 1 2 3 3 4 2 2 3 2 0 1 3 3 4 3 4 4 3 3 3 2 3 2 1 1 1 1 2 2 3 3 4 4 4 4 2 3 2 1 2 4 1 2 3 2 3 4 3 1 1 2 3 2 1 2 4 4 3 4 5
7 7 8 8 8 9 8 8 8 9 9 10 12 14 16 15 10 6 5 5 4 1 2 5 5 4 3 1 1 3 2 1 1 1 4 4 2 3 4 4 4 4 5 4 3 3 3 3 3 2 1 2 2 1 1 1 2 3 4 5 6 6 3 3 4 1 2 4 2 1 2 3 5 6 5 3 3 2 2 2 0 1 3 4 3 4 5
7 6 6 6 7 7 8 7 7 8 9 9 10 13 15 14 11 7 5 4 3 1 3 4 4 4 3 1 0 1 2 2 2 2 1 2 2 4 4 4 5 5 5 4 3 3 4 2 2 2 1 2 3 1 1 1 1 2 3 5 6 5 3 3 3 1 2 3 2 2 3 4 5 5 4 4 3 3 2 1 1 0 3 4 3 4 4
8 6 5 5 6 6 6 6 6 6 7 7 7 9 12 14 12 7 3 3 3 1 4 4 5 2 2 4 3 2 2 2 2 2 0 1 1 2 2 2 3 3 3 3 2 3 3 2 2 2 1 2 1 2 1 1 1 2 0 3 3 3 3 2 2 1 2 3 2 2 3 4 5 5 5 4 3 3 1 2 2 2 3 2 2 3 3
8 6 5 4 5 5 5 5 5 5 5 6 5 5 7 11 12 9 5 3 3 1 4 3 4 3 3 4 3 1 1 2 3 3 1 2 2 2 1 2 1 2 3 3 2 2 2 1 1 3 2 2 1 2 2 2 2 2 2 2 1 1 1 1 2 2 1 2 1 2 4 5 5 5 3 1 3 2 3 4 3 3 4 2 1 0 1
8 6 5 5 4 5 4 4 4 3 3 4 4 4 4 7 10 10 6 3 3 1 4 3 4 5 4 4 4 3 2 1 1 3 3 2 2 2 4 2 2 1 2 2 1 1 2 1 1 1 2 2 2 2 1 2 3 3 4 3 3 3 3 1 2 3 2 2 1 0 3 5 5 5 1 1 3 4 4 3 3 4 4 3 2 2 1
8 6 5 5 5 5 5 4 4 3 3 2 3 2 2 4 6 7 6 2 4 1 2 2 3 5 6 5 5 5 5 4 4 4 3 3 2 2 3 3 2 1 1 2 2 1 2 2 1 1 1 1 1 2 2 1 4 3 3 3 2 3 4 2 3 3 3 3 3 4 4 5 6 6 3 4 4 4 4 4 3 3 3 3 3 3 3
8 7 5 5 5 5 5 5 5 5 4 3 3 2 1 2 4 6 7 3 2 3 6 6 8 11 12 13 14 13 11 9 7 4 3 2 1 2 4 3 3 3 2 3 3 1 1 2 2 2 1 1 1 2 3 2 2 4 1 3 3 5 4 4 4 3 4 5 6 5 3 3 4 4 4 5 4 2 4 5 3 3 3 3 3 3 5
9 7 5 5 5 5 5 6 6 6 6 5 5 3 2 3 4 5 6 4 2 5 8 9 10 12 13 13 13 12 11 12 13 11 7 4 1 1 2 3 2 2 2 3 4 3 3 3 2 2 2 2 3 2 1 2 2 3 2 2 3 3 3 3 2 2 3 4 5 5 3 4 5 5 4 3 3 3 4 5 3 3 4 4 3 4 5
9 7 6 5 5 5 6 6 7 7 7 7 6 5 4 4 4 4 4 2 2 2 4 3 3 2 2 3 3 4 5 7 9 12 12 10 5 1 2 4 4 2 1 4 3 4 3 2 1 2 2 3 3 4 3 3 4 3 3 2 4 2 3 3 2 1 2 3 3 5 5 5 6 5 5 3 3 3 4 5 4 4 4 4 4 5 5
9 8 6 5 5 6 6 6 6 7 7 8 7 6 6 5 2 3 3 1 2 2 1 3 3 1 2 6 7 6 6 6 7 9 13 15 14 8 4 4 7 5 3 4 4 4 3 2 2 2 3 3 3 3 3 3 3 3 4 3 3 1 3 3 3 3 3 4 6 5 4 5 5 5 5 4 4 5 5 4 4 4 4 5 6 6 5
9 8 7 6 5 6 6 6 6 6 7 7 7 7 7 6 4 2 3 3 2 2 1 3 4 3 9 12 11 8 6 6 8 10 12 15 19 18 11 4 4 3 3 4 3 3 3 3 2 3 3 3 3 3 3 3 3 3 3 5 2 4 4 3 3 3 2 6 7 4 3 6 6 6 7 6 5 6 5 4 4 4 4 5 6 6 6
9 8 7 6 6 6 6 6 7 7 7 7 7 7 8 7 6 6 4 3 2 1 1 2 4 8 12 12 11 9 7 6 8 10 13 14 19 22 17 8 3 3 4 3 1 2 3 2 2 3 3 2 3 3 3 2 3 3 3 4 2 4 4 3 2 2 3 6 6 5 3 4 5 6 8 8 7 6 6 4 4 5 5 5 5 6 7
8 7 7 7 6 6 6 7 7 8 8 8 8 7 7 6 5 8 9 5 2 1 1 2 4 9 11 9 9 10 8 6 7 8 12 14 16 19 18 11 5 4 4 3 2 2 3 2 3 3 2 2 2 1 1 1 1 3 4 4 4 5 6 6 5 5 7 9 7 6 5 4 5 5 6 7 6 6 6 6 6 6 7 6 5 5 6
8 7 7 7 6 5 6 6 7 8 8 7 7 5 3 3 1 7 12 10 5 2 1 2 4 4 5 8 12 12 8 7 7 8 11 12 14 15 15 11 7 4 4 3 3 3 3 2 2 2 2 3 3 1 1 2 3 5 4 6 8 7 7 9 10 8 7 8 7 7 6 5 5 6 6 6 6 7 7 7 6 6 7 7 6 6 7
8 7 7 6 5 5 5 5 6 7 7 6 6 3 2 3 2 4 11 12 8 3 1 2 3 3 4 7 9 10 11 10 6 4 4 5 7 11 13 10 5 3 3 2 1 2 1 1 2 2 2 3 3 2 2 3 3 5 4 7 9 9 8 9 10 9 8 6 4 7 7 6 4 4 3 4 7 8 6 5 6 7 9 9 7 8 10
7 6 6 5 5 4 4 5 5 6 6 4 2 2 1 1 1 4 10 13 9 3 1 1 3 3 4 4 4 7 13 11 2 3 3 3 2 3 7 7 4 3 2 2 1 0 1 2 2 1 1 3 3 2 2 2 3 5 5 7 9 9 9 9 8 9 9 4 4 5 3 3 3 2 1 4 8 9 6 5 8 9 10 10 10 10 12
7 6 5 5 4 3 3 4 5 5 5 4 2 3 3 3 3 6 10 13 10 4 1 1 2 2 2 3 4 6 9 6 2 3 2 2 3 3 3 4 3 2 3 3 1 2 2 3 3 2 2 4 3 2 2 4 7 8 5 7 8 8 8 8 8 8 7 4 6 3 2 2 4 5 5 5 7 9 8 7 9 11 11 10 11 12 14
6 6 4 3 2 2 3 4 4 5 5 6 5 4 5 7 9 10 12 11 8 3 1 1 2 2 2 3 5 5 4 3 2 2 3 1 1 2 3 3 2 2 3 3 3 2 1 2 3 1 2 3 3 2 3 6 10 10 6 6 7 7 6 7 7 6 5 6 7 6 6 5 7 8 7 5 5 6 7 8 9 8 7 7 7 10 13
5 4 2 1 1 2 2 3 3 3 3 4 3 3 1 6 12 14 14 10 4 1 1 1 1 2 2 2 3 3 4 3 2 1 2 2 2 2 1 2 2 1 2 2 2 1 1 2 2 1 2 2 2 2 4 7 10 12 9 6 5 3 3 4 5 5 5 6 7 8 6 4 5 5 5 4 4 5 6 7 6 5 4 5 5 8 10
4 2 1 1 1 1 1 1 2 2 2 3 2 3 3 3 11 16 15 8 2 0 1 1 1 2 2 3 3 3 4 3 1 1 0 1 2 1 2 1 1 1 1 1 1 1 1 1 1 1 2 2 2 4 5 6 9 10 8 5 4 2 2 4 5 6 6 6 6 6 4 6 6 5 4 4 4 4 4 5 5 4 4 5 7 8 8
1 0 2 3 3 2 1 1 1 1 1 1 3 4 3 2 8 14 14 6 1 0 1 0 1 2 1 2 3 3 5 3 2 1 1 0 2 2 1 2 1 2 1 1 1 2 1 2 1 1 1 2 3 4 4 5 7 8 7 6 7 6 7 8 8 5 4 4 5 5 5 6 5 4 4 3 4 4 3 4 4 3 4 6 7 7 7
1 3 4 4 3 1 0 1 2 1 1 3 5 6 5 5 6 8 9 4 2 1 1 1 2 2 1 2 3 2 4 2 2 2 2 0 1 1 1 2 0 2 1 1 2 2 1 1 1 1 2 3 5 5 5 6 8 10 9 8 7 7 8 8 5 4 4 4 4 4 4 4 4 3 3 4 5 4 3 4 5 5 5 6 6 6 8
4 4 4 3 1 1 1 1 1 1 3 4 3 2 2 3 3 3 3 2 2 2 2 1 3 2 2 2 3 1 1 1 1 1 1 1 0 1 1 1 0 1 1 1 2 1 1 1 1 2 3 4 4 6 6 7 8 9 9 8 6 6 6 5 5 7 6 4 4 4 4 3 3 3 4 5 5 5 5 5 6 6 7 7 8 9 11
6 4 2 1 1 1 1 1 2 3 4 4 3 1 0 1 1 0 1 1 2 1 1 2 2 2 3 4 4 2 2 1 1 1 2 1 0 0 0 0 0 0 1 2 1 2 1 1 1 1 3 3 4 5 7 7 8 9 8 7 5 4 4 5 6 9 8 6 7 7 6 5 5 5 5 5 5 5 4 5 6 8 9 10 10 11 11
5 2 2 1 1 2 3 3 3 4 4 2 1 1 0 0 1 1 1 0 1 1 2 2 2 2 4 4 4 3 3 3 1 2 2 1 0 1 1 1 1 1 1 2 1 2 1 1 0 1 2 3 5 7 8 8 8 8 6 5 4 3 5 6 7 9 7 5 5 8 9 8 7 7 5 5 5 4 3 4 6 9 10 10 10 11 12
3 2 1 1 2 2 2 1 1 2 1 1 0 1 0 1 1 1 1 1 2 2 2 2 1 2 3 4 3 3 2 2 2 1 1 1 1 0 1 1 0 1 1 3 1 2 1 0 0 1 2 3 5 8 9 8 8 8 7 5 4 2 4 5 6 7 6 5 4 6 8 9 9 8 7 6 6 5 5 5 7 9 10 9 11 13 15
4 2 1 3 4 3 2 1 0 1 1 1 1 0 0 1 1 1 1 2 2 2 1 2 2 3 3 4 3 3 2 1 1 1 1 0 1 0 1 1 0 1 2 2 0 1 0 0 1 2 3 4 5 6 8 8 9 8 6 5 6 5 2 3 5 6 7 7 7 7 8 10 10 10 8 7 7 6 6 6 7 9 9 10 11 13 16
5 2 3 3 2 1 0 1 1 0 1 1 0 1 1 1 1 1 1 1 1 1 2 2 1 1 1 2 2 1 0 2 2 1 1 1 0 1 0 1 0 1 2 0 1 1 2 2 2 3 3 4 5 6 7 8 9 8 6 4 6 6 7 5 4 6 7 8 9 9 10 12 11 9 8 8 7 5 4 5 7 8 8 9 11 13 17
4 0 2 1 0 1 1 1 0 0 0 0 1 1 1 2 1 1 1 1 1 1 2 1 0 1 2 1 1 1 0 1 1 1 0 1 0 1 1 2 2 1 1 1 0 1 1 2 3 3 3 4 5 6 7 7 8 8 8 6 4 4 6 7 5 4 5 6 8 9 10 11 9 6 6 7 6 4 4 6 7 6 6 9 11 14 17
3 1 2 2 2 1 1 0 1 0 1 2 2 3 3 2 3 2 2 2 2 2 2 1 2 2 3 2 0 1 1 0 1 0 0 0 1 0 2 2 1 0 1 0 1 1 1 2 2 3 4 6 6 6 7 7 7 7 8 8 7 4 3 4 5 4 5 7 9 10 10 10 8 8 8 7 5 4 4 6 7 5 6 9 12 14 15
1 1 3 2 1 1 1 1 1 1 2 3 3 3 4 4 4 3 2 2 2 3 3 2 2 2 2 2 0 0 0 1 1 1 1 2 1 2 2 0 1 1 0 1 2 2 3 3 3 3 5 6 6 7 6 6 6 7 7 8 8 7 5 5 6 6 6 9 11 11 11 10 10 9 9 7 5 3 2 4 4 4 7 10 11 11 12
0 1 2 2 1 1 0 1 3 3 3 3 3 4 4 3 2 2 3 3 3 3 3 2 1 1 2 1 0 1 0 1 1 1 1 2 1 2 1 1 0 1 1 2 3 3 3 3 4 4 5 5 6 7 8 7 7 8 8 8 9 9 7 6 6 7 7 9 11 11 11 11 11 10 8 7 5 3 2 4 4 5 7 9 9 9 11
1 1 1 1 1 1 2 2 2 2 2 2 2 2 2 0 1 3 3 3 2 2 2 2 0 1 1 1 0 1 1 1 0 1 0 1 0 1 2 2 2 2 1 2 3 3 3 4 4 5 6 6 6 7 7 7 8 9 10 10 10 10 8 7 6 6 7 9 10 11 12 13 13 10 8 6 4 2 2 4 6 7 8 9 8 9 11
1 1 1 1 1 2 3 2 1 3 3 2 2 2 1 1 4 5 3 2 2 2 2 2 2 1 1 1 0 0 1 1 0 0 1 1 1 1 0 1 2 2 1 1 2 4 4 5 5 6 7 7 7 7 7 7 8 9 10 10 11 11 9 7 6 7 7 9 9 12 14 13 12 10 8 6 4 1 3 6 7 8 9 8 8 9 10
1 1 1 2 1 2 2 0 1 3 4 3 2 2 2 2 3 4 2 1 1 1 1 1 1 1 0 1 2 1 2 1 1 1 1 1 1 1 1 1 2 2 2 3 4 5 5 5 5 7 7 8 8 8 8 8 8 9 10 13 15 13 10 9 9 10 9 9 10 13 14 13 11 9 7 4 3 2 6 8 8 8 8 8 9 10 10
1 0 1 3 3 3 2 1 1 3 4 4 3 3 2 1 0 3 4 2 1 3 2 0 0 2 3 2 1 1 1 0 1 2 1 1 1 0 2 4 4 4 4 5 5 5 5 6 6 6 7 8 8 8 8 8 10 11 12 16 17 13 9 11 11 11 11 11 11 13 13 12 9 7 4 3 4 7 9 10 9 8 9 9 9 10 11
1 1 2 3 3 3 3 2 2 3 4 4 3 3 2 1 1 3 4 2 2 2 0 1 2 3 2 1 1 0 1 1 1 1 1 1 1 1 2 4 5 4 5 6 6 5 6 6 6 7 8 8 9 10 9 9 10 12 13 16 16 10 9 10 10 11 12 11 11 12 11 9 6 5 5 6 7 8 8 9 9 9 9 8 8 9 10
Wind_Direction
1 4 4 5 6 4 3 2 358 0 6 8 8 15 46 62 69 357 7 29 89 71 50 334 35 61 359 52 35 10 36 10 350 4 15 22 42 37 30 36 48 46 48 65 67 71 65 27 41 93 44 44 19 315 326 336 357 60 60 308 337 50 65 45 9 329 310 280 320 20 14 24 46 26 10 6 350 338 158 164 151 64 23 17 66 95 111
1 5 6 6 6 4 4 5 1 1 5 3 2 31 109 91 215 348 13 33 84 88 84 69 60 32 2 38 15 2 38 36 15 16 15 10 32 53 30 13 49 49 32 63 69 68 84 52 25 61 80 20 350 351 357 4 29 47 15 302 8 38 45 66 70 25 351 330 328 348 4 19 36 352 346 355 354 360 49 94 62 66 64 138 108 120 125
2 6 8 7 7 5 6 7 4 4 5 3 10 94 139 51 140 281 6 32 60 98 156 125 99 67 47 48 23 7 15 28 26 26 28 24 39 71 38 8 46 47 39 59 44 40 83 94 6 42 50 328 336 0 4 7 30 36 29 41 91 80 60 97 115 129 170 191 256 296 333 348 1 343 339 347 359 7 28 73 58 68 131 77 93 131 229
2 8 9 9 8 7 8 10 9 7 7 8 31 81 119 71 49 307 346 18 43 62 91 96 96 100 82 55 24 26 12 323 347 42 57 31 33 63 35 354 37 36 44 66 38 25 48 70 76 60 10 323 319 347 2 11 20 28 30 32 67 96 58 74 118 131 159 172 210 265 318 358 352 340 337 339 346 360 40 84 76 89 105 75 86 196 339
2 9 11 10 10 9 11 13 14 12 11 12 41 52 52 93 73 9 338 351 16 31 20 33 66 100 109 87 6 10 11 332 352 29 54 21 38 67 26 9 51 47 57 83 48 14 26 39 57 49 341 304 305 334 11 15 10 22 26 16 57 97 48 33 91 90 119 152 238 313 3 55 345 322 324 321 325 359 46 72 104 108 94 89 249 246 64
4 10 13 12 12 12 13 16 19 21 19 23 64 57 31 81 120 220 119 39 10 41 13 13 51 59 69 88 51 14 24 38 19 353 356 9 36 79 39 15 36 67 101 113 86 22 26 24 18 2 358 354 339 347 6 5 8 24 19 3 70 103 65 349 83 42 16 49 29 12 35 23 297 273 276 295 314 356 34 15 164 119 121 155 178 93 74
5 11 15 14 14 14 16 19 24 29 31 42 66 68 20 70 87 324 41 88 166 150 21 22 51 48 41 51 51 43 41 41 356 303 11 10 4 69 81 5 4 30 73 102 97 83 88 46 320 268 37 25 16 13 354 343 4 32 27 6 73 106 95 267 104 67 23 16 18 28 24 350 314 293 285 291 301 322 359 304 271 142 157 168 125 95 73
6 13 16 16 16 17 18 22 27 31 40 58 66 57 17 77 103 327 42 59 39 24 24 38 56 35 26 48 34 40 53 30 342 338 72 49 350 37 93 69 26 39 52 79 99 154 154 148 193 174 107 15 356 97 274 291 349 17 27 357 30 87 112 218 87 79 344 336 350 348 347 337 326 342 351 351 340 337 359 352 336 357 42 105 112 102 75
6 14 19 18 18 20 20 25 29 31 42 66 72 46 25 97 158 133 93 48 354 7 19 50 72 32 15 62 31 12 23 2 328 2 67 103 43 92 141 129 67 47 45 61 88 196 169 161 186 176 152 160 192 154 188 192 349 7 17 350 8 71 97 17 66 82 275 296 317 314 332 55 60 19 9 359 355 353 345 7 23 17 345 26 79 102 80
4 13 21 21 21 22 22 26 30 34 45 64 82 35 20 62 128 85 100 75 355 15 20 29 69 67 326 21 35 26 2 335 54 81 32 35 47 143 157 138 76 51 45 37 277 225 194 190 205 183 152 120 109 88 92 126 126 134 103 36 4 96 106 71 81 103 243 278 288 299 14 58 41 352 360 333 317 320 327 14 42 28 325 45 79 127 212
2 11 21 25 25 24 25 28 31 35 43 54 71 52 15 55 110 54 77 75 355 11 52 34 57 94 355 20 49 55 41 23 47 99 69 5 13 81 129 115 93 92 169 252 256 205 178 157 61 90 90 77 78 77 72 68 57 113 137 93 2 65 92 118 116 101 245 274 292 358 58 75 250 288 339 292 279 310 341 38 38 3 14 77 80 52 358
358 8 18 27 31 27 27 30 34 38 42 47 57 54 32 55 113 72 84 100 344 360 64 44 286 138 28 54 67 53 49 38 22 115 121 27 7 38 75 87 90 124 253 283 6 84 122 75 39 53 59 63 72 66 59 52 27 6 93 114 111 62 71 112 103 92 229 287 11 54 91 235 254 299 316 289 277 18 91 102 71 18 25 58 59 26 355
354 2 15 25 33 34 30 31 35 40 43 44 49 48 36 43 97 88 96 108 19 322 96 10 319 60 73 76 76 50 40 39 2 38 101 86 33 23 25 82 121 265 272 58 45 61 92 51 22 35 21 19 44 49 45 40 20 8 25 72 117 117 111 124 94 88 40 18 44 95 241 277 303 323 318 326 20 35 72 85 46 18 27 35 31 2 349
349 355 10 21 31 39 36 33 37 41 42 43 45 46 39 40 67 98 106 102 117 244 144 35 337 30 75 79 76 41 8 13 16 24 64 104 78 36 313 235 278 304 115 95 49 55 95 62 31 33 357 3 24 29 20 25 27 21 8 9 83 114 123 102 72 102 108 80 21 290 332 328 323 326 331 24 38 26 92 113 289 350 34 16 352 360 357
346 349 2 14 27 39 41 40 40 38 41 43 44 45 43 38 46 89 124 115 109 346 82 165 214 168 125 117 97 79 29 9 28 8 327 328 99 259 269 287 322 5 96 99 56 58 91 80 71 58 352 16 51 305 324 354 1 13 13 16 55 76 119 138 120 115 108 95 38 354 10 320 259 243 256 283 225 203 131 117 272 351 23 3 1 19 7
345 344 351 3 17 31 41 45 42 35 38 43 42 43 42 35 38 71 97 100 105 71 247 205 186 150 129 119 70 103 114 122 114 22 339 337 330 302 292 305 338 39 78 71 61 78 71 75 118 137 200 190 177 252 326 10 341 337 2 34 53 49 47 103 101 72 95 103 106 158 187 242 239 227 243 271 250 197 116 78 252 353 353 346 21 34 11
341 338 339 350 2 18 34 42 44 39 36 39 42 41 39 32 29 45 74 88 96 242 243 190 136 98 96 99 357 140 143 137 121 104 345 297 296 299 306 332 1 44 76 65 39 61 71 89 121 122 228 205 148 144 258 92 82 299 335 18 39 37 22 53 81 109 145 131 148 208 221 246 239 214 223 245 218 140 85 351 280 292 317 327 21 31 6
335 334 325 331 344 0 20 30 40 44 38 38 43 42 38 32 26 30 68 98 84 290 248 178 137 149 182 161 172 187 157 131 113 110 333 300 272 266 290 347 3 12 60 81 66 61 83 124 146 129 207 245 141 139 212 158 162 224 201 50 37 18 15 59 99 158 169 158 193 257 259 248 223 205 218 216 166 120 137 220 187 178 248 275 30 25 347
329 329 319 312 322 337 358 14 26 38 39 40 44 44 38 29 26 31 53 100 107 260 261 199 156 191 184 131 120 157 140 121 118 114 75 318 268 245 20 37 3 341 36 76 92 96 103 166 215 134 138 246 208 159 188 191 196 192 135 113 135 130 60 91 124 131 147 163 188 291 286 253 197 182 224 186 134 175 220 196 174 187 207 208 141 111 314
325 324 315 302 301 311 324 343 2 10 18 32 42 51 43 22 20 29 39 88 126 272 275 229 188 209 197 152 149 162 139 91 113 131 144 212 246 57 44 358 307 5 38 69 83 113 143 189 239 152 150 210 199 157 201 255 250 191 159 171 198 170 148 164 182 166 138 130 138 78 285 252 179 142 118 157 171 202 203 168 172 187 178 176 194 202 230
322 319 314 302 292 291 299 309 327 334 332 350 9 26 35 7 2 9 10 60 116 92 287 228 211 227 217 206 205 191 177 179 175 155 161 212 227 101 114 219 216 135 144 156 142 193 193 174 200 197 161 189 193 168 179 277 307 271 169 158 208 190 167 181 213 190 141 141 197 212 221 215 178 148 159 207 207 182 143 136 171 187 177 182 197 218 238
321 313 312 307 293 284 286 289 298 310 307 309 318 318 325 323 331 341 337 320 192 225 259 269 276 268 257 258 262 261 254 242 228 197 147 159 230 158 145 175 193 188 176 134 129 200 199 154 174 185 155 167 206 204 175 153 295 283 196 145 213 220 190 172 189 197 176 184 210 223 229 220 203 186 187 207 223 177 129 135 162 180 190 190 185 224 249
321 312 308 307 297 286 280 280 289 297 297 299 307 303 278 284 307 332 331 311 257 260 265 271 282 280 273 268 264 262 259 252 247 241 215 181 204 235 163 167 198 207 167 147 155 169 173 173 170 157 177 190 165 157 188 199 222 237 208 203 239 231 175 153 167 233 258 245 217 208 225 240 230 226 218 208 218 196 150 149 171 191 197 195 193 222 243
320 311 306 305 300 290 279 277 283 289 289 292 297 302 303 300 314 339 339 347 25 337 297 302 314 284 277 305 308 298 280 253 246 247 235 209 191 242 261 209 189 171 239 217 173 121 129 175 136 130 216 214 157 153 201 232 226 200 180 248 284 260 165 163 176 195 248 268 239 205 209 219 216 225 239 233 224 212 173 165 186 196 194 199 209 222 236
316 310 305 302 300 295 286 280 281 283 285 286 284 291 298 294 310 23 31 40 58 70 21 326 306 263 9 342 323 311 302 279 252 247 238 218 204 207 224 193 181 183 203 195 143 106 112 133 113 154 220 214 183 187 206 221 220 193 184 222 263 208 163 176 192 179 190 246 252 233 231 244 229 213 217 218 220 222 206 191 192 193 201 218 223 221 225
312 307 303 298 299 300 293 288 286 283 285 285 281 282 283 269 241 165 106 93 94 98 60 297 271 308 349 335 314 308 308 280 250 241 240 229 221 222 222 190 166 163 123 112 122 137 135 115 125 172 208 212 196 193 195 198 179 159 205 231 206 140 151 177 187 193 262 279 265 240 256 277 259 227 219 218 209 205 206 207 206 208 221 236 235 229 228
308 303 301 295 295 298 296 295 295 293 294 296 294 290 286 274 242 206 179 131 92 55 340 269 266 307 324 315 304 313 319 294 269 254 246 239 231 227 223 205 154 124 107 90 70 112 113 113 185 190 201 211 188 180 201 194 140 140 226 241 181 151 178 183 146 168 252 260 237 191 194 258 255 227 221 219 202 187 191 202 213 224 230 234 242 249 248
306 302 299 292 289 291 294 297 301 302 305 309 312 311 306 297 252 205 197 191 157 148 203 229 279 306 310 302 306 318 320 306 290 265 251 246 236 225 216 202 171 145 141 135 133 138 150 188 196 180 190 192 175 202 239 122 136 229 232 204 180 186 186 175 175 203 233 237 220 179 171 229 243 219 210 206 185 171 185 202 213 224 229 221 223 247 260
304 299 296 292 286 284 289 297 305 311 315 320 324 333 355 2 304 195 194 195 182 142 145 273 289 303 303 302 305 310 318 320 300 276 263 252 233 216 206 197 183 174 157 136 140 164 185 197 182 177 197 173 149 205 239 152 215 246 217 174 190 204 190 185 196 215 239 243 217 178 178 216 229 208 199 197 179 170 191 215 218 226 239 232 219 230 244
302 299 300 297 284 278 285 294 303 313 320 328 340 4 44 26 8 189 187 187 182 151 72 324 300 299 299 298 296 304 321 329 316 286 280 255 220 205 198 190 173 139 121 102 111 150 175 233 220 216 211 168 143 176 209 182 225 251 207 179 196 211 211 208 208 215 234 239 188 171 194 212 202 182 194 203 186 177 193 224 225 235 249 246 232 231 240
300 297 300 300 290 283 284 288 302 312 312 319 4 67 83 359 323 184 179 178 176 156 85 258 267 295 301 284 266 299 316 324 358 93 58 48 67 168 180 167 125 89 106 80 40 11 229 226 211 202 199 183 179 203 190 179 254 263 221 193 206 215 218 224 223 223 231 222 116 125 193 191 142 141 250 239 209 196 199 228 240 249 260 259 251 249 250
302 298 299 299 291 284 282 290 302 309 302 290 266 229 230 216 170 156 163 171 174 161 76 274 284 322 314 290 283 300 312 321 58 78 39 37 48 51 98 112 100 144 148 120 120 240 229 196 191 192 175 178 193 224 192 207 245 252 212 189 212 220 213 221 233 232 224 183 127 133 235 219 183 195 215 220 209 198 199 228 253 263 272 275 273 270 269
301 301 301 295 287 289 298 302 304 302 300 298 289 273 249 216 182 153 147 160 178 190 178 228 309 308 282 296 309 319 335 348 8 25 16 359 29 54 54 44 54 128 150 147 176 226 221 166 175 202 179 167 185 241 230 225 242 250 232 205 218 225 216 223 235 232 211 180 173 201 229 220 203 207 210 213 216 207 212 241 265 272 276 276 274 274 274
302 306 306 302 312 309 305 317 329 325 313 307 324 15 29 206 193 171 156 159 175 216 182 148 289 280 285 321 327 342 15 13 326 335 5 345 358 73 80 16 23 79 183 182 188 262 258 183 167 178 179 163 179 244 247 239 245 254 253 234 222 236 252 253 247 230 211 194 197 214 214 163 150 169 181 196 233 241 240 251 260 264 272 271 262 267 273
308 314 316 19 22 14 3 3 357 347 332 310 321 21 45 208 199 183 172 163 136 33 210 164 222 262 316 333 297 310 2 8 314 284 308 315 350 60 113 67 20 273 219 161 143 222 219 173 150 175 183 170 192 236 251 251 252 257 255 228 195 192 238 256 247 231 216 201 200 205 171 127 134 158 167 185 231 245 244 250 249 242 252 264 266 270 274
314 83 89 85 78 62 55 159 223 274 312 359 34 52 70 160 186 184 182 178 39 208 198 350 248 218 287 303 272 321 3 355 304 333 14 349 354 7 79 94 73 251 211 127 193 233 194 130 150 210 205 194 218 240 262 280 279 273 258 226 201 194 213 232 234 219 197 186 186 179 156 152 173 184 178 203 234 231 227 253 261 247 247 261 269 273 273
149 123 94 88 95 83 340 235 213 161 135 130 101 85 88 109 139 170 187 210 288 244 196 316 268 213 171 240 260 338 6 336 309 351 358 33 358 342 38 87 183 242 211 164 223 233 185 162 196 221 226 232 250 269 290 297 290 282 271 252 224 207 219 230 213 151 126 138 154 152 147 159 177 174 173 219 244 233 219 238 245 240 249 261 267 272 277
131 123 105 97 111 134 176 235 244 122 152 171 156 96 83 106 114 143 180 207 252 230 178 227 252 210 154 222 241 239 333 290 341 9 313 239 333 330 8 75 242 269 295 272 231 169 144 212 233 243 251 261 279 291 293 292 289 284 278 267 244 217 215 208 163 139 133 140 160 161 142 144 184 205 202 217 233 228 218 230 242 244 248 257 267 275 282
126 121 129 152 218 200 127 91 89 130 160 183 199 233 357 87 123 167 182 184 222 223 184 218 239 196 180 223 248 227 194 220 359 298 239 242 14 353 47 7 299 324 313 277 227 138 150 255 260 258 272 300 319 307 303 308 308 302 292 279 260 222 191 177 171 171 173 178 182 178 164 162 187 203 207 215 230 238 235 236 245 252 256 263 273 278 282
146 158 183 200 214 166 130 108 112 135 149 170 208 199 184 33 176 184 171 197 229 219 189 205 233 209 194 215 253 252 193 162 168 218 223 239 274 193 177 252 245 134 231 258 220 135 175 238 171 225 278 310 322 318 321 325 323 319 318 308 281 220 184 185 195 192 183 164 157 164 168 172 178 183 194 201 209 229 245 240 248 260 266 272 279 284 290
163 170 186 238 260 239 218 216 191 162 138 35 337 154 154 294 252 186 152 195 241 248 213 179 213 269 226 197 211 244 227 179 160 165 168 245 287 163 159 209 155 92 239 249 205 114 137 249 230 236 265 295 310 319 329 335 336 340 346 342 324 268 196 184 190 188 169 132 128 163 177 179 181 189 199 196 191 208 230 241 259 273 278 283 288 297 307
173 176 246 285 278 266 268 294 67 109 92 42 341 316 280 250 246 233 203 204 219 241 219 179 193 232 216 177 180 218 221 155 108 88 100 265 285 188 177 215 124 176 237 248 95 91 110 255 240 247 274 302 315 326 337 340 340 340 345 358 359 339 279 197 183 188 181 163 160 171 178 180 189 204 213 206 203 215 229 247 272 286 295 302 306 313 321
184 204 286 302 294 268 30 43 41 71 78 64 356 291 289 281 265 241 243 250 246 242 238 228 242 277 238 173 177 214 126 122 119 111 134 221 234 75 37 287 214 206 230 264 88 167 208 203 213 247 292 317 326 336 342 337 332 328 327 1 20 352 311 279 228 198 190 183 179 180 181 186 197 213 219 209 206 217 243 273 287 295 308 319 325 330 331
170 219 318 317 357 73 64 28 333 165 118 276 232 204 229 282 277 235 243 264 252 236 238 219 132 328 288 235 164 122 118 117 91 79 239 241 154 108 207 243 237 231 17 42 184 235 244 216 220 258 309 325 328 337 341 336 332 328 322 324 336 325 298 285 263 208 182 185 187 182 182 188 194 197 194 195 201 220 264 294 308 316 327 337 341 341 338
131 26 26 29 347 344 87 75 339 154 191 227 219 190 192 209 208 211 234 230 213 238 271 195 155 202 260 269 159 159 204 75 56 25 246 66 66 183 221 230 238 53 53 25 252 275 285 255 252 304 331 330 328 334 336 331 326 322 314 306 296 269 238 252 258 233 192 184 181 174 175 180 177 167 174 191 209 228 269 305 321 333 347 353 352 347 345
138 110 95 98 289 280 149 148 283 237 203 208 201 189 192 194 191 204 228 221 222 260 274 237 179 207 252 269 265 224 118 84 88 225 112 82 98 238 229 197 24 22 29 282 265 250 243 252 275 315 320 316 321 327 326 323 321 317 309 299 288 272 240 227 242 243 217 191 177 169 168 168 166 167 181 200 215 228 283 329 346 5 10 6 2 355 354
169 78 86 104 272 302 252 206 218 213 210 218 216 209 204 196 204 235 230 213 229 263 272 248 199 235 255 244 219 267 327 84 120 245 93 103 194 262 337 45 290 227 191 226 248 249 256 274 291 305 308 312 321 322 318 317 317 312 306 298 288 278 256 227 227 234 219 189 170 161 159 161 165 175 190 201 209 227 325 13 39 46 31 22 18 9 5
163 93 96 164 209 233 220 221 250 269 259 250 240 226 205 142 300 273 245 210 209 240 244 231 235 326 311 292 214 231 289 17 47 264 263 114 160 320 8 11 280 254 191 195 234 259 281 291 296 306 311 312 311 307 305 307 306 305 303 298 290 279 262 234 215 211 206 190 170 156 155 161 167 177 186 195 207 225 44 60 67 57 43 38 34 23 17
123 82 125 171 205 228 220 208 333 314 288 271 254 232 211 235 268 268 252 194 193 217 206 175 143 120 295 305 33 97 278 273 197 290 9 49 73 250 259 268 276 283 261 219 262 280 292 299 305 308 305 302 301 300 299 298 299 299 297 294 292 284 264 232 194 178 193 200 179 157 155 162 168 170 174 192 223 244 82 85 79 65 55 53 48 38 31
70 66 169 192 232 257 245 160 24 304 300 311 311 269 233 231 273 291 288 184 165 99 61 81 89 79 329 7 35 7 280 249 134 63 17 341 237 235 262 274 271 275 283 286 285 290 300 307 307 303 299 298 300 300 297 294 296 296 292 292 294 286 253 208 175 161 175 194 184 164 160 164 165 163 171 202 225 140 106 94 83 75 73 70 63 53 45
14 324 228 215 216 223 227 187 221 267 282 290 280 263 242 193 304 307 293 265 88 55 34 235 134 48 38 37 15 313 274 208 76 51 342 254 225 275 310 298 289 286 292 295 296 299 302 300 297 298 300 301 300 298 296 296 299 297 292 292 293 281 229 190 169 156 164 180 182 171 165 165 164 167 184 197 163 129 111 96 88 90 89 81 72 65 56
187 244 261 251 226 210 212 219 227 244 256 257 245 238 232 193 188 246 254 230 110 67 296 178 105 68 43 228 223 284 13 35 29 10 322 265 244 242 269 279 285 292 298 300 300 298 294 292 292 294 295 295 295 296 295 296 299 298 294 294 292 269 207 179 159 145 151 166 174 170 165 162 160 162 164 158 146 134 118 106 102 105 104 95 84 75 65